This is the latest recevied weather packets stored in our database for station/object WC4PEM-9. If no packets are shown the sender has not sent any weather packets the latest 1 day(s).
| Time | Temp. | Humidity | Pressure | Rain* | Wind** | Luminosity | Snow |
|---|---|---|---|---|---|---|---|
| 1778036006 | 20° C | 81% | 1016.2 hPa | 0 mm | 0.45 m/s, 158° | - | - |
| 1778035706 | 20.56° C | 81% | 1016.1 hPa | 0 mm | 0.45 m/s, 153° | - | - |
| 1778035406 | 20.56° C | 80% | 1016.2 hPa | 0 mm | 0.45 m/s, 153° | - | - |
| 1778035106 | 20.56° C | 79% | 1016.1 hPa | 0 mm | 0.45 m/s, 146° | - | - |
| 1778035092 | 20.56° C | 78% | 1016.2 hPa | 0 mm | 0.45 m/s, 146° | - | - |
| 1778034806 | 20.56° C | 78% | 1016.2 hPa | 0 mm | 0.45 m/s, 146° | - | - |
| 1778034506 | 21.11° C | 77% | 1015.9 hPa | 0 mm | 0.45 m/s, 93° | - | - |
| 1778034206 | 21.11° C | 76% | 1016 hPa | 0 mm | 0.45 m/s, 9° | - | - |
| 1778034051 | 21.67° C | 75% | 1016.1 hPa | 0 mm | 0.45 m/s, 137° | - | - |
| 1778033906 | 21.11° C | 76% | 1015.9 hPa | 0 mm | 0.45 m/s, 162° | - | - |
| 1778033606 | 21.67° C | 75% | 1016.1 hPa | 0 mm | 0.45 m/s, 137° | - | - |
| 1778033306 | 21.67° C | 75% | 1015.9 hPa | 0 mm | 0.45 m/s, 93° | - | - |
| 1778033192 | 21.67° C | 74% | 1015.8 hPa | 0 mm | 0.45 m/s, 9° | - | - |
| 1778033092 | 21.67° C | 73% | 1015.9 hPa | 0 mm | 0.89 m/s, 93° | - | - |
| 1778033006 | 21.67° C | 74% | 1015.8 hPa | 0 mm | 0.45 m/s, 9° | - | - |
| 1778032706 | 21.67° C | 73% | 1015.9 hPa | 0 mm | 0.89 m/s, 93° | - | - |
| 1778032406 | 22.22° C | 72% | 1015.8 hPa | 0 mm | 0.89 m/s, 221° | - | - |
| 1778032106 | 22.22° C | 72% | 1015.7 hPa | 0 mm | 0.89 m/s, 178° | - | - |
| 1778031806 | 22.22° C | 72% | 1015.3 hPa | 0 mm | 0.89 m/s, 110° | - | - |
| 1778031506 | 22.22° C | 71% | 1015.3 hPa | 0 mm | 0.89 m/s, 265° | - | - |
| 1778031352 | 22.22° C | 70% | 1015.3 hPa | 0 mm | 0.89 m/s, 133° | - | - |
| 1778031304 | 22.22° C | 70% | 1015.3 hPa | 0 mm | 0.89 m/s, 133° | - | - |
| 1778031304 | 22.78° C | 70% | 1015.3 hPa | 0 mm | 0.89 m/s, 142° | - | - |
| 1778031206 | 22.22° C | 70% | 1015.3 hPa | 0 mm | 0.89 m/s, 133° | - | - |
| 1778031138 | 22.78° C | 70% | 1015.3 hPa | 0 mm | 0.89 m/s, 142° | - | - |
* Rain latest hour (hover to see other rain measurements)
** Current wind speed in m/s (hover to see current wind gust speed)